Weather History for Branson, MO

Change the Weather History Date:

Tuesday, December 25, 2012

  Actual Average (KHRO) Record (KHRO)
Temperature  
Mean Temperature 28 °F 36 °F  
Max Temperature 32 °F 46 °F 78 °F (1955)
Min Temperature 23 °F 27 °F -9 °F (1983)
Degree Days  
Heating Degree Days 38 29  
Month to date heating degree days 661  
Since 1 July heating degree days 1425  
Cooling Degree Days 0 0  
Month to date cooling degree days 0  
Year to date cooling degree days 1416  
Moisture  
Dew Point 20 °F    
Average Humidity 77    
Maximum Humidity 86    
Minimum Humidity 60    
Precipitation  
Precipitation 0.00 in 0.10 in 2.20 in (1987)
Month to date precipitation 2.65  
Year to date precipitation 43.59  
Snow  
Snow 0.00 in 0.10 in 8.60 in (1975)
Month to date snowfall 0.7  
Since 1 July snowfall 1.2  
Snow Depth -    
Sea Level Pressure  
Sea Level Pressure 29.99 in    
Wind  
Wind Speed 9 mph (NNE)    
Max Wind Speed 23 mph    
Max Gust Speed 29 mph    
Visibility 7 miles    
Events Rain    
T = Trace of Precipitation, MM = Missing Value Source: NWS Daily Summary

Daily Weather History Graph

Daily Weather History Graph

Search for Another Location

Airport:

Trip Planner

Search our weather history database for the weather conditions in past years. The results will help you decide how hot, cold, wet, or windy it might be!

Date:

Astronomy

Dec. 25, 2012 Rise Set
Actual Time 7:23 AM CST 5:03 PM CST
Civil Twilight 6:54 AM CST 5:32 PM CST
Nautical Twilight 6:21 AM CST 6:04 PM CST
Astronomical Twilight 5:50 AM CST 6:36 PM CST
Moon 3:10 PM CST (12/25) 4:57 AM CST (12/25)
Length of Visible Light 10h 38m
Length of Day
9h 40m
Waxing Gibbous, 94% of the Moon is Illuminated
Dec 25
Waxing Gibbous
Dec 28
Full
Jan 4
Last Quarter
Jan 11
New
Jan 18
First Quarter

Hourly Weather History & Observations

Time (CST) Temp. Windchill Dew Point Humidity Pressure Visibility Wind Dir Wind Speed Gust Speed Precip Events Conditions
12:15 AM 26.6 °F 18.2 °F 19.4 °F 74% 30.01 in 5.0 mi NNE 8.1 mph - N/A   Haze
12:35 AM 26.6 °F 19.1 °F 19.4 °F 74% 30.00 in 5.0 mi NE 6.9 mph - N/A   Haze
12:55 AM 24.8 °F 19.1 °F 19.4 °F 80% 30.01 in 5.0 mi NE 4.6 mph - N/A   Haze
1:15 AM 24.8 °F 16.1 °F 19.4 °F 80% 30.01 in 5.0 mi NE 8.1 mph - N/A   Haze
1:35 AM 24.8 °F 17.9 °F 19.4 °F 80% 30.01 in 5.0 mi NE 5.8 mph - N/A   Haze
1:55 AM 24.8 °F 17.9 °F 19.4 °F 80% 30.02 in 5.0 mi NE 5.8 mph - N/A   Haze
2:15 AM 24.8 °F 17.9 °F 19.4 °F 80% 30.02 in 5.0 mi NE 5.8 mph - N/A   Haze
2:35 AM 23.0 °F 17.0 °F 19.4 °F 86% 30.03 in 4.0 mi NE 4.6 mph - N/A   Clear
2:55 AM 23.0 °F 15.8 °F 19.4 °F 86% 30.03 in 4.0 mi ENE 5.8 mph - N/A   Clear
3:15 AM 23.0 °F 15.8 °F 19.4 °F 86% 30.03 in 4.0 mi ENE 5.8 mph - N/A   Clear
3:35 AM 23.0 °F 18.4 °F 19.4 °F 86% 30.03 in 4.0 mi NE 3.5 mph - N/A   Clear
3:55 AM 23.0 °F 15.8 °F 19.4 °F 86% 30.02 in 4.0 mi NE 5.8 mph - N/A   Clear
4:15 AM 23.0 °F 17.0 °F 19.4 °F 86% 30.02 in 4.0 mi NNE 4.6 mph - N/A   Clear
4:35 AM 23.0 °F 14.7 °F 19.4 °F 86% 30.00 in 4.0 mi NNE 6.9 mph - N/A   Clear
4:55 AM 23.0 °F 14.7 °F 19.4 °F 86% 30.00 in 4.0 mi ENE 6.9 mph - N/A   Clear
5:15 AM 23.0 °F 14.7 °F 19.4 °F 86% 30.00 in 4.0 mi ENE 6.9 mph - N/A   Mostly Cloudy
5:35 AM 23.0 °F 14.7 °F 19.4 °F 86% 29.99 in 4.0 mi NE 6.9 mph - N/A   Overcast
6:50 AM 24.8 °F 16.9 °F 19.4 °F 80% 30.06 in 4.0 mi NNE 6.9 mph - N/A   Overcast
7:45 AM 24.8 °F 17.9 °F 19.4 °F 80% 30.08 in 5.0 mi NE 5.8 mph - N/A   Overcast
8:47 AM 24.8 °F 14.6 °F 19.4 °F 80% 30.05 in 5.0 mi ENE 10.4 mph - N/A   Overcast
9:47 AM 24.8 °F 14.0 °F 17.6 °F 74% 30.02 in 7.0 mi NE 11.5 mph 17.3 mph N/A   Overcast
10:48 AM 26.6 °F 16.8 °F 17.6 °F 69% 30.00 in 7.0 mi NE 10.4 mph 16.1 mph N/A   Overcast
11:46 AM 28.4 °F 19.1 °F 19.4 °F 69% 29.97 in 8.0 mi ENE 10.4 mph 21.9 mph N/A   Overcast
1:45 PM 30.2 °F 21.3 °F 19.4 °F 64% 29.92 in 10.0 mi NNE 10.4 mph 17.3 mph N/A   Overcast
2:45 PM 32.0 °F 23.6 °F 19.4 °F 60% 29.98 in 10.0 mi NE 10.4 mph - N/A   Overcast
3:49 PM 32.0 °F 23.0 °F 21.2 °F 64% 29.94 in 10.0 mi NNE 11.5 mph 23.0 mph N/A   Overcast
4:50 PM 30.2 °F 21.9 °F 21.2 °F 69% 29.93 in 10.0 mi NNE 9.2 mph 25.3 mph N/A   Overcast
5:55 PM 30.2 °F 19.8 °F 21.2 °F 69% 29.94 in 10.0 mi North 13.8 mph 23.0 mph N/A   Overcast
6:55 PM 30.2 °F 18.9 °F 21.2 °F 69% 29.93 in 10.0 mi North 16.1 mph 25.3 mph N/A   Overcast
7:55 PM 28.4 °F 15.1 °F 21.2 °F 74% 29.94 in 10.0 mi North 20.7 mph 26.5 mph N/A   Overcast
8:15 PM 28.4 °F 15.4 °F 21.2 °F 74% 29.94 in 10.0 mi North 19.6 mph 27.6 mph N/A   Overcast
8:35 PM 28.4 °F 16.2 °F 21.2 °F 74% 29.94 in 10.0 mi North 17.3 mph 26.5 mph N/A   Overcast
8:45 PM 28.4 °F 16.2 °F 21.2 °F 74% 29.94 in 10.0 mi North 17.3 mph 24.2 mph N/A   Overcast
8:55 PM 28.4 °F 15.1 °F 21.2 °F 74% 29.95 in 10.0 mi North 20.7 mph 28.8 mph N/A   Overcast
9:15 PM 28.4 °F 15.1 °F 21.2 °F 74% 29.95 in 10.0 mi North 20.7 mph 27.6 mph N/A   Overcast
10:15 PM 28.4 °F 15.8 °F 21.2 °F 74% 29.95 in 10.0 mi North 18.4 mph 26.5 mph N/A   Overcast
10:35 PM 26.6 °F 12.0 °F 21.2 °F 80% 29.95 in 10.0 mi North 23.0 mph 28.8 mph N/A   Overcast
10:55 PM 26.6 °F 14.3 °F 19.4 °F 74% 29.95 in 9.0 mi North 16.1 mph 25.3 mph N/A Rain Light Freezing Rain
11:15 PM 26.6 °F 14.3 °F 19.4 °F 74% 29.95 in 10.0 mi NNW 16.1 mph 26.5 mph N/A Rain Light Freezing Rain
11:35 PM 26.6 °F 15.2 °F 19.4 °F 74% 29.96 in 10.0 mi North 13.8 mph 23.0 mph N/A   Overcast
11:55 PM 26.6 °F 14.7 °F 19.4 °F 74% 29.96 in 10.0 mi North 15.0 mph 26.5 mph N/A   Overcast